This is the latest recevied weather packets stored in our database for station/object KB9ZI. If no packets are shown the sender has not sent any weather packets the latest 10 day(s).
| Time | Temp. | Humidity | Pressure | Rain* | Wind** | Luminosity | Snow |
|---|---|---|---|---|---|---|---|
| 1777578317 | 11.11° C | 48% | 1017.1 hPa | 0 mm | - | - | - |
| 1777578198 | 11.11° C | 48% | 1017.1 hPa | 0 mm | - | - | - |
| 1777578075 | 11.67° C | 52% | 1017.1 hPa | 0 mm | - | - | - |
| 1777577954 | 11.11° C | 49% | 1017.2 hPa | 0 mm | - | - | - |
| 1777577835 | 11.67° C | 50% | 1017.2 hPa | 0 mm | - | - | - |
| 1777577708 | 11.67° C | 51% | 1017.3 hPa | 0 mm | - | - | - |
| 1777577647 | 11.11° C | 51% | 1017.1 hPa | 0 mm | - | - | - |
| 1777577466 | 10.56° C | 50% | 1017.1 hPa | 0 mm | - | - | - |
| 1777577346 | 10.56° C | 49% | 1017.2 hPa | 0 mm | - | - | - |
| 1777577235 | 11.11° C | 48% | 1017.1 hPa | 0 mm | - | - | - |
| 1777577107 | 11.11° C | 52% | 1017.2 hPa | 0 mm | - | - | - |
| 1777576984 | 10.56° C | 51% | 1017.3 hPa | 0 mm | - | - | - |
| 1777576837 | 10.56° C | 51% | 1017.4 hPa | 0 mm | - | - | - |
| 1777576714 | 10.56° C | 50% | 1017.3 hPa | 0 mm | - | - | - |
| 1777576597 | 10.56° C | 50% | 1017.4 hPa | 0 mm | - | - | - |
| 1777576496 | 10.56° C | 52% | 1017.3 hPa | 0 mm | - | - | - |
| 1777576471 | 10.56° C | 50% | 1017.3 hPa | 0 mm | - | - | - |
| 1777576229 | 10.56° C | 49% | 1017.4 hPa | 0 mm | - | - | - |
| 1777576107 | 10° C | 49% | 1017.3 hPa | 0 mm | - | - | - |
| 1777575969 | 10.56° C | 49% | 1017.4 hPa | 0 mm | - | - | - |
| 1777575847 | 10.56° C | 49% | 1017.4 hPa | 0 mm | - | - | - |
| 1777575726 | 11.11° C | 47% | 1017.5 hPa | 0 mm | - | - | - |
| 1777575607 | 11.11° C | 52% | 1017.5 hPa | 0 mm | - | - | - |
| 1777575486 | 10.56° C | 52% | 1017.3 hPa | 0 mm | - | - | - |
| 1777575424 | 10.56° C | 53% | 1017.4 hPa | 0 mm | - | - | - |
* Rain latest hour (hover to see other rain measurements)
** Current wind speed in m/s (hover to see current wind gust speed)